TimeEST,TemperatureF,Dew PointF,Humidity,Sea Level PressureIn,VisibilityMPH,Wind Direction,Wind SpeedMPH,Gust SpeedMPH,PrecipitationIn,Events,Conditions,WindDirDegrees,DateUTC
12:15 AM,17.6,14.0,86,29.85,1.8,WNW,10.4,18.4,N/A,Snow,Light Snow,300,2013-11-28 05:15:00
12:35 AM,17.6,14.0,86,29.85,4.0,WNW,12.7,18.4,N/A,Snow,Light Snow,290,2013-11-28 05:35:00
12:55 AM,17.6,14.0,86,29.87,1.8,WNW,9.2,20.7,N/A,Snow,Light Snow,290,2013-11-28 05:55:00
1:15 AM,17.6,14.0,86,29.88,0.8,WNW,6.9,-,N/A,Snow,Snow,290,2013-11-28 06:15:00
1:35 AM,17.6,15.8,93,29.89,1.2,WNW,8.1,-,N/A,Snow,Light Snow,300,2013-11-28 06:35:00
1:55 AM,17.6,14.0,86,29.91,1.2,WNW,9.2,16.1,N/A,Snow,Light Snow,300,2013-11-28 06:55:00
2:15 AM,17.6,14.0,86,29.92,1.2,WNW,8.1,16.1,N/A,Snow,Light Snow,300,2013-11-28 07:15:00
2:35 AM,17.6,14.0,86,29.93,2.0,WNW,10.4,-,N/A,Snow,Light Snow,290,2013-11-28 07:35:00
2:55 AM,17.6,14.0,86,29.94,3.0,WNW,6.9,-,N/A,Snow,Light Snow,290,2013-11-28 07:55:00
3:15 AM,17.6,14.0,86,29.95,2.5,WNW,5.8,-,N/A,Snow,Light Snow,300,2013-11-28 08:15:00
3:35 AM,17.6,14.0,86,29.97,1.0,WNW,6.9,-,N/A,Snow,Light Snow,300,2013-11-28 08:35:00
3:55 AM,17.6,14.0,86,29.99,0.8,NW,3.5,-,N/A,Snow,Snow,310,2013-11-28 08:55:00
4:15 AM,17.6,14.0,86,30.00,1.5,WNW,9.2,18.4,N/A,Snow,Light Snow,300,2013-11-28 09:15:00
4:35 AM,15.8,12.2,86,30.01,7.0,WNW,5.8,16.1,N/A,Snow,Light Snow,290,2013-11-28 09:35:00
4:55 AM,15.8,12.2,86,30.02,2.5,West,6.9,-,N/A,Snow,Light Snow,280,2013-11-28 09:55:00
5:15 AM,15.8,12.2,86,30.04,7.0,WNW,6.9,-,N/A,Snow,Light Snow,290,2013-11-28 10:15:00
5:35 AM,15.8,12.2,86,30.05,10.0,WNW,5.8,-,N/A,Snow,Light Snow,300,2013-11-28 10:35:00
5:55 AM,15.8,12.2,86,30.06,7.0,WNW,5.8,-,N/A,Snow,Light Snow,290,2013-11-28 10:55:00
6:15 AM,15.8,12.2,86,30.07,3.0,WNW,5.8,-,N/A,Snow,Light Snow,290,2013-11-28 11:15:00
6:35 AM,15.8,12.2,86,30.08,3.0,WNW,4.6,-,N/A,Snow,Light Snow,290,2013-11-28 11:35:00
6:55 AM,15.8,12.2,86,30.09,10.0,WNW,5.8,-,N/A,Snow,Light Snow,290,2013-11-28 11:55:00
7:15 AM,14.0,12.2,93,30.10,10.0,West,3.5,-,N/A,,Overcast,280,2013-11-28 12:15:00
7:35 AM,14.0,12.2,93,30.11,10.0,Calm,Calm,-,N/A,,Overcast,0,2013-11-28 12:35:00
7:55 AM,14.0,12.2,93,30.13,10.0,Calm,Calm,-,N/A,,Scattered Clouds,0,2013-11-28 12:55:00
8:15 AM,14.0,12.2,93,30.14,10.0,Calm,Calm,-,N/A,,Mostly Cloudy,0,2013-11-28 13:15:00
8:35 AM,14.0,12.2,93,30.15,4.0,West,3.5,-,N/A,Snow,Light Snow,280,2013-11-28 13:35:00
8:55 AM,15.8,12.2,86,30.15,3.0,Calm,Calm,-,N/A,Snow,Light Snow,0,2013-11-28 13:55:00
9:15 AM,17.6,12.2,79,30.16,7.0,WNW,3.5,-,N/A,Snow,Light Snow,290,2013-11-28 14:15:00
9:35 AM,17.6,14.0,86,30.17,5.0,West,3.5,-,N/A,Snow,Light Snow,270,2013-11-28 14:35:00
9:55 AM,19.4,14.0,80,30.17,7.0,WNW,5.8,-,N/A,Snow,Light Snow,300,2013-11-28 14:55:00
10:15 AM,19.4,14.0,80,30.18,7.0,WNW,4.6,-,N/A,Snow,Light Snow,300,2013-11-28 15:15:00
10:35 AM,19.4,14.0,80,30.18,7.0,WNW,5.8,-,N/A,Snow,Light Snow,300,2013-11-28 15:35:00
10:55 AM,21.2,14.0,74,30.18,4.0,Calm,Calm,-,N/A,Snow,Light Snow,0,2013-11-28 15:55:00
11:15 AM,19.4,14.0,80,30.18,10.0,Calm,Calm,-,N/A,,Overcast,0,2013-11-28 16:15:00
11:35 AM,21.2,14.0,74,30.18,4.0,NW,5.8,-,N/A,Snow,Light Snow,310,2013-11-28 16:35:00
11:55 AM,21.2,14.0,74,30.18,7.0,WNW,3.5,-,N/A,Snow,Light Snow,290,2013-11-28 16:55:00
12:15 PM,21.2,15.8,80,30.18,7.0,Calm,Calm,-,N/A,Snow,Light Snow,0,2013-11-28 17:15:00
12:35 PM,21.2,17.6,86,30.18,2.0,Calm,Calm,-,N/A,Snow,Light Snow,0,2013-11-28 17:35:00
12:55 PM,21.2,17.6,86,30.18,2.0,Calm,Calm,-,N/A,Snow,Light Snow,0,2013-11-28 17:55:00
1:15 PM,21.2,17.6,86,30.18,3.0,SW,3.5,-,N/A,Snow,Light Snow,220,2013-11-28 18:15:00
1:35 PM,21.2,17.6,86,30.17,7.0,WSW,4.6,-,N/A,Snow,Light Snow,240,2013-11-28 18:35:00
1:55 PM,21.2,17.6,86,30.17,2.0,WSW,3.5,-,N/A,Snow,Light Snow,250,2013-11-28 18:55:00
2:15 PM,21.2,19.4,93,30.17,1.2,SW,4.6,-,N/A,Snow,Light Snow,230,2013-11-28 19:15:00
2:35 PM,21.2,19.4,93,30.17,1.5,WSW,4.6,-,N/A,Snow,Light Snow,240,2013-11-28 19:35:00
2:55 PM,21.2,19.4,93,30.18,1.8,WSW,4.6,-,N/A,Snow,Light Snow,240,2013-11-28 19:55:00
3:15 PM,21.2,19.4,93,30.18,1.0,West,3.5,-,N/A,Snow,Light Snow,260,2013-11-28 20:15:00
3:35 PM,21.2,19.4,93,30.19,1.2,Calm,Calm,-,N/A,Snow,Light Snow,0,2013-11-28 20:35:00
3:55 PM,21.2,19.4,93,30.19,1.5,WSW,3.5,-,N/A,Snow,Light Snow,240,2013-11-28 20:55:00
4:15 PM,21.2,19.4,93,30.20,7.0,SW,3.5,-,N/A,Snow,Light Snow,230,2013-11-28 21:15:00
4:35 PM,21.2,19.4,93,30.20,4.0,Calm,Calm,-,N/A,Snow,Light Snow,0,2013-11-28 21:35:00
4:55 PM,21.2,19.4,93,30.21,5.0,Calm,Calm,-,N/A,Snow,Light Snow,0,2013-11-28 21:55:00
5:15 PM,21.2,19.4,93,30.21,7.0,SW,4.6,-,N/A,Snow,Light Snow,220,2013-11-28 22:15:00
5:35 PM,21.2,19.4,93,30.22,5.0,SSW,3.5,-,N/A,Snow,Light Snow,210,2013-11-28 22:35:00
5:55 PM,21.2,19.4,93,30.23,4.0,Calm,Calm,-,N/A,Snow,Light Snow,0,2013-11-28 22:55:00
6:15 PM,21.2,19.4,93,30.24,2.5,Calm,Calm,-,N/A,Snow,Light Snow,0,2013-11-28 23:15:00
6:35 PM,21.2,19.4,93,30.25,2.0,SW,3.5,-,N/A,Snow,Light Snow,220,2013-11-28 23:35:00
6:55 PM,21.2,19.4,93,30.26,2.5,SSW,4.6,-,N/A,Snow,Light Snow,210,2013-11-28 23:55:00
7:15 PM,21.2,19.4,93,30.26,2.0,SSW,5.8,-,N/A,Snow,Light Snow,210,2013-11-29 00:15:00
7:35 PM,21.2,19.4,93,30.26,2.5,SSW,3.5,-,N/A,Snow,Light Snow,210,2013-11-29 00:35:00
7:55 PM,19.4,19.4,100,30.26,3.0,SSW,4.6,-,N/A,Snow,Light Snow,210,2013-11-29 00:55:00
8:15 PM,19.4,19.4,100,30.27,5.0,SW,3.5,-,N/A,Snow,Light Snow,220,2013-11-29 01:15:00
8:35 PM,19.4,17.6,93,30.27,7.0,SW,3.5,-,N/A,Snow,Light Snow,220,2013-11-29 01:35:00
8:55 PM,19.4,17.6,93,30.28,7.0,SSW,3.5,-,N/A,Snow,Light Snow,210,2013-11-29 01:55:00
9:15 PM,19.4,17.6,93,30.28,7.0,SSW,4.6,-,N/A,,Overcast,210,2013-11-29 02:15:00
9:35 PM,19.4,17.6,93,30.28,7.0,SSW,3.5,-,N/A,Snow,Light Snow,210,2013-11-29 02:35:00
9:55 PM,19.4,17.6,93,30.28,7.0,SSW,4.6,-,N/A,Snow,Light Snow,210,2013-11-29 02:55:00
10:15 PM,19.4,17.6,93,30.28,5.0,SSW,4.6,-,N/A,Snow,Light Snow,210,2013-11-29 03:15:00
10:35 PM,19.4,17.6,93,30.29,7.0,SW,5.8,-,N/A,Snow,Light Snow,220,2013-11-29 03:35:00
10:55 PM,19.4,17.6,93,30.29,5.0,SSW,3.5,-,N/A,Snow,Light Snow,210,2013-11-29 03:55:00
11:15 PM,19.4,17.6,93,30.29,5.0,SW,3.5,-,N/A,Snow,Light Snow,220,2013-11-29 04:15:00
11:35 PM,19.4,17.6,93,30.29,7.0,Calm,Calm,-,N/A,Snow,Light Snow,0,2013-11-29 04:35:00
11:55 PM,19.4,17.6,93,30.30,5.0,Calm,Calm,-,N/A,Snow,Light Snow,0,2013-11-29 04:55:00